Погода в Бурчаке

Украина / Запорожская область     47°22′15″N   35°18′32″E
темп.,
°C
ветер,
м/с
пор.,
м/с
влажн.,
%
обл.,
%
осадки,
мм/ч
давл.,
гПа
погр.,
м
20 апреля, вт
вт2000:00+10в2268100 0.0 101232
03:00+10всв2273100 0.0 101041
06:00+9в2586100 0.5 1007184
09:00+9всв4892100 1.6 1006456
12:00+8с5698100 10.5 1004310
15:00+9сз3395100 10.8 1002344
18:00+8зсз61093100 0.4 1004621
21:00+9з71390100 0.9 1007547
21 апреля, ср
ср2100:00+7зюз51089100 0.0 1009236
03:00+6зюз4108860 0.0 1011186
06:00+5юз37894 0.0 1013120
09:00+11юз466821 0.0 1014483
12:00+14юз6752100 0.3 10151653
15:00+14зюз6855100 0.5 10151257
18:00+14юз586333 0.3 10161106
21:00+9юз48835 0.8 1018130
22 апреля, чт
чт2200:00+8юз37900 0.0 1019131
03:00+6юз35930 0.0 101982
06:00+6ююз33935 0.0 102055
09:00+12ююз34705 0.0 1021435
12:00+16ююз44515 0.0 10211450
15:00+18юз454198 0.4 10202491
18:00+16ююз465833 0.4 1020323
21:00+10ю34795 1.8 102261
23 апреля, пт
пт2300:00+9юз36843 0.0 102297
03:00+8ююз35882 0.0 102269
06:00+7ююз34871 0.0 102265
09:00+13ююз46630 0.0 1022468
12:00+17ююз56455 0.0 10211716
15:00+18ююз774235 0.0 10202243
18:00+15ююв67542 0.0 1019860
21:00+10ююв51177100 0.0 1019259
24 апреля, сб
сб2400:00+9ю41076100 0.0 1018257
03:00+9зюз41083100 0.0 1017299
06:00+8з5891100 0.0 1017601
09:00+7сз688066 0.1 1019772
12:00+12зсз6850100 0.0 10191544
15:00+14зсз8104022 0.0 10182183
18:00+10зсз79430 0.0 10201565
21:00+6сз38540 0.0 1021156